Location: Auckland
(36.8670°S, 174.7670°E)
Time: 14:54:18
(UTC+12:00)

A-11 Canister half - Pass Details

Date: 26 July 2019
Orbit: 1526 x 1683 km, 47.3° (Epoch: 23 August)

Event Time Altitude Azimuth Distance (km) Brightness Sun altitude
Rises 15:59:25 0° 245° (WSW) 4,842 12.0 14.7°
Reaches altitude 10° 16:03:16 10° 258° (WSW) 3,876 11.8 14.1°
Maximum altitude 16:10:39 24° 306° (NW) 2,927 12.8 12.9°
Drops below altitude 10° 16:18:09 10° 355° (N) 3,924 11.8 11.7°
Sets 16:22:08 0° 8° (N) 4,915 12.0 11.1°
